Wind_Speed
60 59 52 48 43 38 31 27 22 19 16 13 11 7 6 6 7 6 11 8 5 3 1 4 3 3 2 3 1 3 1 3 4 3 2 1 1 1 2 1 3 5 4 3 1 3 4 5 2 3 4 6 7 10
63 58 54 48 44 39 35 29 24 20 16 13 10 7 6 7 6 8 7 14 15 8 4 4 10 8 4 1 2 2 3 3 1 1 2 2 2 3 1 1 3 0 2 1 6 4 1 5 4 4 2 4 6 9
63 58 53 50 47 41 36 31 26 21 16 14 12 8 6 8 5 14 17 19 17 4 4 4 3 6 7 2 3 3 2 1 3 1 2 1 1 2 1 2 3 2 4 1 5 3 8 5 2 4 3 8 13 9
62 59 56 51 48 43 37 31 26 22 18 15 12 9 9 11 9 18 10 9 8 6 4 2 4 4 6 5 5 5 7 3 4 2 2 2 2 2 1 1 2 2 5 5 5 5 14 2 16 13 18 14 9 14
65 60 57 54 48 43 37 32 27 23 19 16 13 10 11 15 18 20 17 8 6 3 4 3 2 4 4 6 8 6 6 3 3 2 2 1 0 2 1 1 1 2 2 1 4 7 9 14 14 19 15 13 13 13
67 64 59 54 50 44 38 33 29 24 20 17 14 11 15 16 6 3 3 8 5 5 4 3 1 2 4 5 8 8 5 3 2 2 1 1 1 2 1 0 2 2 2 6 5 11 15 17 16 16 9 15 14 14
66 64 59 57 51 44 38 34 29 24 21 17 13 14 16 11 1 4 2 3 5 4 3 3 2 3 4 2 2 3 4 2 2 1 3 2 3 2 1 1 2 6 9 12 10 8 11 6 10 17 16 19 22 25
64 64 61 57 51 44 39 34 29 25 21 16 18 18 13 15 9 5 9 5 6 6 4 3 2 3 7 2 2 3 2 2 4 2 1 1 1 1 2 4 6 11 9 10 7 11 14 18 18 13 17 15 16 15
64 59 60 56 50 44 40 35 30 26 22 23 23 24 7 2 3 4 7 8 8 2 3 3 3 2 5 2 1 1 1 3 1 1 3 2 2 3 4 4 9 9 5 10 11 11 11 14 15 14 12 13 13 10
63 57 59 57 50 45 40 36 32 29 31 31 15 3 2 3 9 4 1 3 4 3 3 3 2 1 2 2 2 0 0 1 1 1 1 1 2 4 4 5 5 5 7 8 11 10 13 13 13 15 12 12 12 6
65 56 56 55 49 45 41 39 35 36 30 7 3 2 7 7 1 4 3 4 3 4 2 2 3 1 1 2 1 1 1 1 2 3 3 2 3 3 5 5 4 4 7 7 7 9 11 11 10 11 11 11 12 13
65 60 57 52 49 45 43 41 43 20 13 10 14 10 5 3 3 6 1 3 3 3 0 3 2 2 1 1 1 2 2 2 4 3 2 2 3 5 4 4 6 7 7 7 10 9 11 13 13 10 10 10 12 14
64 61 57 51 48 46 43 43 33 16 22 12 5 4 3 3 6 5 2 3 1 2 2 1 1 1 1 1 1 1 2 3 4 3 4 3 1 2 5 5 6 10 11 10 11 11 12 11 11 10 10 9 10 13
59 58 56 51 47 45 43 40 22 26 3 3 4 4 2 2 1 3 4 4 2 3 5 3 1 1 1 2 1 2 4 2 3 2 4 2 4 4 5 4 4 8 7 7 10 15 13 13 12 11 12 9 7 10
58 54 50 48 45 43 41 32 28 5 3 3 3 3 2 3 3 2 2 2 2 4 3 3 2 2 1 1 2 2 3 4 4 3 3 4 4 5 6 5 6 7 6 6 13 12 15 16 13 12 14 12 8 6
55 49 42 45 43 42 40 25 13 2 4 3 4 5 2 3 1 1 2 1 3 3 2 2 2 3 1 1 3 5 3 4 4 3 3 3 4 6 6 7 9 12 12 13 15 16 17 16 14 14 14 15 15 8
42 18 48 45 43 34 31 11 3 5 3 3 1 2 3 3 4 3 3 3 8 3 2 3 3 6 2 2 3 4 4 3 3 3 2 4 5 7 8 12 13 13 14 17 18 18 19 20 19 14 10 14 12 9
34 52 51 47 43 31 7 3 4 3 5 2 3 2 2 3 4 3 3 2 3 3 3 4 3 3 4 5 4 3 3 3 3 4 4 7 10 15 14 11 15 15 17 19 20 22 22 16 14 13 16 17 10 9
51 52 46 46 29 8 3 2 3 4 2 2 2 1 3 3 3 4 4 6 4 5 5 2 2 3 4 3 4 3 3 3 3 4 4 15 16 15 18 18 17 18 16 17 20 15 18 20 17 16 16 14 12 13
52 50 48 25 7 5 4 3 3 4 3 2 2 3 2 2 1 2 3 2 2 2 2 2 5 3 4 3 3 3 3 3 3 5 7 5 10 13 17 16 15 19 19 22 19 14 17 17 18 16 16 15 12 14
41 34 21 6 5 9 4 2 3 2 3 3 2 2 1 2 3 2 0 1 1 3 3 4 4 4 4 8 10 12 12 7 4 4 7 9 12 17 19 22 20 17 12 13 12 16 14 14 19 20 17 16 18 19
26 21 6 5 6 5 4 6 4 3 3 2 2 2 3 2 1 1 2 2 4 4 4 3 3 2 2 5 10 12 16 15 15 16 17 18 6 5 9 18 14 11 13 16 17 17 19 19 20 19 18 18 14 15
22 8 7 6 5 5 2 0 4 3 3 2 2 3 2 1 2 3 2 3 4 5 7 6 5 6 10 14 13 13 12 13 11 13 17 18 20 23 22 23 23 15 12 18 21 21 21 21 20 17 18 16 15 13
9 6 4 3 4 3 2 2 2 3 3 3 2 2 1 1 2 1 3 3 3 3 2 4 6 3 5 5 3 12 17 11 17 19 20 20 13 17 20 23 26 24 22 25 26 23 22 21 17 18 16 16 15 13
6 5 5 6 3 4 4 3 3 3 3 2 4 2 1 0 2 1 3 3 2 2 2 3 6 4 4 3 7 18 22 19 16 7 17 18 22 22 18 19 21 20 16 20 21 19 18 19 19 19 18 15 14 15
6 3 3 3 2 4 4 5 4 4 3 3 2 1 1 3 2 5 3 3 3 3 3 4 4 3 4 13 4 8 20 19 13 14 22 16 15 16 10 9 10 16 11 9 12 18 18 19 19 20 18 17 14 14
5 1 1 1 3 5 4 4 3 3 4 5 4 4 3 3 6 4 3 5 3 10 14 15 14 12 10 16 22 27 28 25 24 24 27 27 27 24 20 16 12 14 16 22 18 16 17 17 17 17 17 18 18 15
3 3 6 3 3 2 5 3 5 6 5 3 5 4 8 8 5 3 5 3 13 11 14 21 23 22 24 27 28 27 28 24 22 23 20 14 11 12 11 14 13 13 18 23 23 21 21 21 21 19 17 18 19 16
3 2 4 4 3 2 3 5 5 3 4 5 5 4 4 4 3 4 4 9 11 17 22 20 17 18 21 22 22 22 21 18 11 6 6 6 4 9 8 13 23 19 17 19 18 15 17 20 22 21 20 16 16 14
2 1 4 3 4 4 3 3 3 2 1 3 1 2 2 3 8 12 14 20 24 23 21 19 22 19 19 17 18 23 18 16 15 14 4 6 7 14 21 17 16 17 17 17 18 18 15 13 10 5 4 7 8 8
2 3 3 2 3 2 1 2 3 1 3 1 1 3 4 3 10 20 26 34 26 21 20 21 22 17 14 15 13 11 10 12 10 12 16 19 19 19 12 12 13 17 17 17 16 15 15 13 10 8 6 6 5 4
2 2 3 2 2 2 3 3 1 1 3 2 3 1 3 3 3 3 4 9 11 12 15 12 14 17 14 15 16 17 18 22 21 20 19 17 12 9 11 14 14 14 14 14 13 12 11 10 9 7 6 5 5 5
2 2 2 2 2 2 2 3 4 4 2 2 3 1 2 2 5 4 4 6 9 10 11 10 12 14 15 16 16 15 14 14 13 11 9 10 11 13 14 14 13 11 10 11 11 12 11 10 8 7 6 6 6 6
Wind_Direction
175 171 170 165 169 165 163 164 164 159 149 142 131 113 81 106 105 104 81 83 101 97 26 28 47 63 16 18 88 332 359 2 10 69 75 6 64 314 34 173 177 171 150 206 168 194 282 353 2 38 300 310 308 328
171 170 164 165 169 165 166 162 165 158 151 141 134 114 84 116 128 106 93 89 92 88 138 101 76 71 77 73 158 12 118 47 25 80 65 72 40 27 335 272 338 72 183 224 186 219 73 12 282 99 19 297 321 318
168 167 164 167 168 164 166 166 165 157 155 147 141 124 96 115 115 129 119 111 101 88 60 53 7 50 45 50 5 98 35 241 64 192 112 36 107 13 335 309 305 340 24 274 359 47 335 302 47 0 318 319 315 313
169 168 165 167 166 166 166 168 162 157 154 150 146 130 123 129 118 138 130 122 98 110 100 306 15 43 29 62 65 77 140 126 116 73 62 97 119 34 199 307 318 313 358 338 281 330 338 283 333 329 322 328 325 319
170 163 165 167 164 166 166 166 161 158 156 151 150 138 138 134 114 107 103 97 119 104 136 151 85 27 33 60 71 93 104 84 55 51 58 80 2 37 352 84 351 13 58 351 265 300 276 285 306 308 312 311 318 317
165 165 167 165 165 166 166 163 161 160 158 154 153 147 156 156 140 38 75 53 90 93 103 107 255 24 31 82 86 72 70 72 76 100 98 68 147 81 26 34 232 168 251 236 290 304 296 288 284 286 291 309 302 309
163 165 165 165 164 163 164 161 159 159 156 155 153 149 157 168 315 57 114 121 117 95 93 87 14 339 348 59 27 44 43 70 90 87 48 17 16 13 67 7 314 315 334 313 309 316 304 282 298 299 291 297 306 306
162 163 163 162 163 162 162 158 157 156 152 153 141 143 148 124 106 83 62 103 87 99 64 95 289 22 9 24 57 358 65 42 21 80 39 76 12 331 240 239 311 323 310 303 326 317 295 289 293 310 320 312 308 308
160 160 159 160 159 161 158 157 153 153 147 145 138 136 119 67 65 110 95 71 61 71 110 80 115 243 354 23 328 93 45 72 243 160 189 188 172 207 226 300 314 317 320 300 310 312 310 321 314 317 319 318 305 308
156 158 159 157 158 158 154 153 152 148 142 139 134 135 85 90 120 134 83 33 20 343 33 95 112 347 74 27 349 155 170 118 107 234 334 225 247 265 262 248 253 297 297 304 321 326 324 322 326 323 321 312 304 302
153 155 154 155 156 152 153 151 150 146 143 159 126 85 119 123 156 36 49 61 331 32 29 135 150 153 289 88 247 186 225 151 114 231 175 233 262 226 228 256 264 272 283 280 259 283 306 305 311 318 318 325 334 341
150 152 154 154 153 153 153 153 150 150 160 173 123 116 113 45 47 79 1 321 56 190 40 120 160 160 289 56 267 261 241 193 234 140 117 247 234 222 256 283 297 289 286 284 282 274 294 307 312 309 310 321 331 333
146 151 153 153 154 154 153 153 157 144 136 125 79 75 74 312 53 100 179 309 6 167 165 90 36 85 17 83 281 256 242 234 112 189 222 229 194 273 284 294 285 286 286 279 285 286 276 284 293 306 304 312 329 327
146 149 149 151 153 153 153 155 153 151 160 91 113 74 104 312 210 169 173 169 199 118 122 111 97 120 83 74 264 246 247 182 252 262 243 256 231 293 302 268 284 303 306 288 285 292 282 277 271 289 295 296 315 318
147 148 148 149 152 152 153 155 159 171 92 95 88 118 156 131 76 157 173 113 106 133 120 110 35 120 206 159 214 280 233 244 218 238 240 245 262 288 285 286 292 292 298 298 298 288 281 278 270 276 289 283 279 299
138 137 142 148 148 151 158 153 167 73 64 87 77 98 85 76 38 172 164 142 192 136 99 61 98 60 208 204 215 215 151 229 249 216 233 251 285 301 303 307 301 292 289 291 297 296 295 285 270 274 282 285 275 267
139 132 147 145 147 148 155 150 119 48 100 74 57 15 104 87 148 161 157 178 166 108 154 115 104 207 150 189 229 208 214 224 221 243 243 255 267 280 283 289 291 296 300 303 306 308 302 302 293 274 265 267 273 265
132 141 146 149 145 140 118 71 90 86 69 60 114 186 92 84 110 126 164 150 132 134 128 211 126 153 191 189 236 233 239 264 232 251 257 272 270 274 283 277 289 295 294 301 307 308 305 299 301 287 275 263 253 276
138 142 148 149 151 118 102 66 32 96 86 93 83 50 71 92 54 77 108 133 95 114 110 64 114 208 231 213 225 243 239 222 253 263 249 274 286 290 293 296 293 296 297 306 307 296 289 290 282 292 284 269 239 252
140 146 151 155 166 97 88 43 57 95 127 144 62 64 77 81 39 51 69 79 103 97 86 198 218 212 205 226 191 210 233 229 251 297 294 274 285 284 283 286 283 298 302 305 294 297 304 303 299 291 280 269 254 245
133 147 152 126 76 63 80 101 69 99 110 83 118 66 68 22 53 89 48 272 93 206 238 224 234 252 222 269 278 274 273 244 223 215 273 292 301 293 290 294 296 291 281 288 300 305 305 284 293 308 300 274 272 266
143 147 109 74 78 65 77 20 98 86 78 99 76 77 66 77 93 148 242 197 235 232 203 204 225 214 269 270 282 284 282 285 280 274 272 267 264 274 275 286 291 280 279 279 282 282 291 296 301 300 298 288 280 269
128 121 63 56 77 54 79 146 83 22 100 130 56 64 20 24 252 305 247 233 246 240 227 231 251 258 252 286 288 275 268 252 252 263 273 271 270 272 273 278 280 267 283 291 294 290 289 303 302 297 294 286 273 264
107 63 73 79 75 104 115 58 70 74 76 53 85 113 284 201 338 102 251 250 247 257 227 225 227 277 285 254 261 260 264 255 258 264 274 278 277 283 284 283 291 291 290 292 292 294 299 304 310 313 314 295 276 256
81 4 86 68 44 101 102 77 58 67 117 147 135 163 245 124 100 219 241 267 266 255 244 219 211 203 220 256 269 268 276 274 262 274 288 284 280 290 294 293 294 303 309 288 287 294 301 313 316 316 320 307 277 262
77 8 85 132 142 121 171 121 141 150 128 146 184 142 67 105 142 236 230 225 226 219 214 194 197 210 234 228 248 274 280 294 281 262 286 289 293 280 284 296 305 311 320 311 317 316 310 309 305 305 302 301 296 274
103 138 83 59 109 118 88 60 68 120 158 173 175 165 119 161 232 250 268 224 216 234 234 235 236 235 246 270 285 288 295 296 286 281 293 298 300 298 283 268 282 294 299 308 314 310 304 303 301 298 293 295 293 289
132 161 147 169 84 35 121 132 157 175 178 171 124 177 178 194 229 230 212 237 234 268 267 265 265 275 285 291 295 297 297 297 296 296 298 304 315 313 306 297 300 309 306 304 303 299 295 298 292 286 287 284 291 290
89 130 99 67 60 66 181 161 194 213 156 156 164 202 228 221 233 221 238 266 279 279 274 283 298 301 299 298 299 302 296 293 293 313 302 292 309 305 289 310 312 317 321 321 321 310 295 295 293 286 287 289 290 285
123 74 94 89 132 200 238 165 196 239 166 168 228 332 310 270 254 268 268 272 268 264 273 281 287 290 287 298 303 306 314 309 287 247 239 270 283 308 317 322 329 334 334 333 330 327 328 332 321 287 265 292 298 287
63 80 72 83 190 258 273 322 335 54 32 356 319 181 243 292 293 275 257 259 261 268 276 283 293 301 306 296 283 290 308 328 318 304 295 292 294 302 307 321 330 335 337 338 339 337 333 334 330 318 301 298 297 294
53 95 121 130 275 306 26 57 47 60 342 357 279 335 317 4 277 278 266 267 253 261 276 296 291 300 312 299 296 293 288 293 296 295 293 293 294 300 315 317 313 319 327 337 343 345 348 350 349 341 326 311 299 292
85 78 80 80 38 27 357 78 27 335 335 293 276 227 242 218 247 275 293 266 266 281 303 310 313 317 318 315 312 310 305 304 301 296 295 296 297 305 307 307 306 308 314 330 337 336 334 334 337 339 334 324 318 315
Height
678 689 699 711 724 732 742 752 761 765 767 770 771 773 774 772 771 770 774 775 777 795 805 804 803 806 806 810 803 803 798 799 798 795 796 804 802 806 801 795 797 798 805 805 804 797 813 787 781 786 795 789 786 779
673 685 695 708 720 728 741 749 759 763 766 769 772 774 774 774 773 772 776 777 778 786 804 806 805 805 807 810 810 808 808 805 808 797 801 803 807 808 816 801 801 800 797 797 801 797 791 793 790 795 795 793 786 782
668 681 689 705 716 726 738 747 755 759 765 769 771 772 775 775 775 773 777 780 782 792 804 807 808 809 808 806 807 810 814 809 810 811 809 803 805 810 814 812 810 802 804 802 797 795 801 795 792 793 792 790 784 780
664 676 687 700 711 723 735 745 752 757 764 768 771 772 774 776 776 776 778 780 781 790 807 814 810 810 810 808 807 806 805 807 811 813 816 814 811 817 813 816 817 813 811 816 808 802 796 788 788 791 786 786 782 777
658 674 686 697 707 722 733 742 749 756 763 767 771 772 774 777 777 777 779 781 782 788 803 812 812 812 811 809 808 807 807 809 813 817 819 818 822 821 823 823 822 819 823 826 820 809 808 799 793 791 789 784 781 776
655 670 683 694 704 718 730 739 747 755 761 766 770 772 776 779 777 779 783 785 785 785 797 813 813 812 812 810 809 810 810 810 814 815 818 819 819 819 820 819 818 818 817 816 811 807 805 799 795 790 787 782 777 772
653 666 681 690 703 717 728 737 746 754 760 765 770 773 777 780 781 783 784 785 785 786 794 817 822 813 812 811 812 812 812 814 815 820 823 826 823 820 817 815 812 812 811 809 807 806 798 792 790 788 783 777 773 767
653 664 678 687 701 716 727 736 745 754 760 767 771 775 779 781 784 784 786 786 786 787 792 823 829 818 814 815 813 814 815 816 821 825 827 825 825 826 820 812 810 809 808 806 805 804 800 793 786 780 778 774 768 761
651 668 675 685 700 716 726 736 744 754 761 768 772 777 780 782 785 787 788 788 788 793 807 819 837 837 816 818 817 815 818 821 824 822 818 820 819 819 806 806 807 807 807 804 801 799 794 791 785 780 776 770 766 758
651 670 676 685 702 716 725 736 746 755 763 769 775 778 783 785 787 788 790 790 793 796 800 822 820 830 822 822 820 816 819 818 834 822 822 817 813 805 804 802 801 802 802 800 798 792 789 785 781 777 773 769 763 758
649 669 680 689 705 714 727 735 747 757 764 769 773 780 784 785 788 790 800 803 807 812 810 819 823 827 821 828 828 819 820 821 833 821 818 826 816 804 801 799 798 797 796 794 793 792 789 785 781 776 772 769 765 761
648 667 681 695 705 717 727 737 745 753 758 764 766 776 783 788 794 801 828 816 810 813 815 817 819 820 821 820 817 815 815 816 827 819 823 820 805 799 798 797 796 794 792 790 788 786 783 781 779 775 771 768 764 761
650 665 682 697 709 719 729 738 749 753 758 763 767 778 784 801 799 813 819 824 821 816 815 820 825 821 820 821 822 817 811 815 813 809 816 809 801 797 797 796 793 790 787 784 782 779 776 775 773 772 768 765 763 762
664 676 683 698 710 721 731 741 748 755 758 762 772 789 793 804 805 810 810 813 814 812 815 818 823 820 821 821 818 810 810 805 800 815 815 816 801 794 794 792 791 787 784 782 779 776 773 770 766 765 765 763 760 759
669 682 692 703 713 725 734 743 752 756 755 766 770 781 795 800 806 811 812 811 811 812 815 819 824 821 825 815 813 809 804 806 803 817 817 807 796 794 791 789 787 785 782 779 775 771 767 764 762 759 758 758 756 753
675 690 700 708 720 729 738 748 755 754 761 769 781 789 797 797 812 806 807 812 810 811 814 818 829 834 817 809 812 811 834 831 813 817 804 799 794 792 790 786 783 781 778 775 771 767 763 760 757 754 752 752 751 748
680 688 702 714 723 734 747 752 754 761 767 774 785 781 784 790 795 802 803 804 807 810 818 826 828 821 819 816 816 808 812 806 803 802 799 795 792 790 786 784 780 777 774 771 768 763 759 755 752 749 747 745 744 743
682 693 705 715 726 742 747 751 758 764 776 785 781 787 785 787 793 799 800 802 804 809 816 822 822 825 828 833 821 806 804 804 799 795 793 789 785 782 780 778 775 773 770 766 763 759 756 752 748 744 742 740 739 739
684 697 710 722 728 731 744 757 758 772 783 785 786 787 788 791 794 795 797 801 802 805 813 821 826 822 812 807 804 805 802 799 793 790 787 782 781 778 775 773 771 768 765 760 757 754 751 747 743 740 737 735 734 733
695 708 720 724 727 731 747 759 760 768 780 786 788 792 797 797 800 800 802 803 806 813 815 812 806 798 797 792 792 792 791 788 789 787 780 776 775 774 770 767 764 762 759 754 750 748 744 739 736 734 732 730 729 727
708 718 722 723 730 736 749 763 768 775 782 790 797 799 805 804 806 804 809 807 808 812 806 797 793 786 785 786 786 785 784 785 784 784 778 772 770 769 766 761 757 756 754 750 746 741 739 736 731 729 726 724 723 722
709 715 719 726 733 746 760 765 767 776 785 791 799 798 810 812 814 807 809 805 798 795 792 789 785 783 782 783 780 779 778 778 776 775 774 771 768 764 760 756 754 749 746 743 742 738 732 729 726 723 721 719 718 717
706 714 722 731 746 756 769 769 773 782 783 795 802 806 817 816 818 810 805 802 792 782 780 779 778 780 780 777 775 774 772 771 770 769 767 764 761 758 754 749 747 743 740 738 736 731 726 723 721 719 716 715 714 714
709 720 736 748 753 764 769 772 776 784 792 798 800 805 813 820 814 812 806 800 784 778 776 774 776 777 775 774 775 769 765 764 763 761 760 759 756 749 746 742 738 735 734 732 728 724 721 719 717 715 713 711 710 710
720 742 742 754 762 766 766 776 787 788 787 794 796 802 813 816 820 817 806 791 784 776 771 770 772 772 774 770 767 764 762 761 760 756 753 754 748 742 738 734 730 728 727 725 721 719 716 715 713 711 709 708 706 706
737 746 746 751 764 764 774 777 785 791 788 798 804 820 822 820 811 801 793 780 774 770 766 766 766 767 766 763 760 758 756 755 754 751 746 746 743 740 736 732 725 720 722 721 719 716 713 711 709 706 704 703 703 703
742 746 749 750 754 758 768 776 782 789 801 796 808 815 816 809 807 784 770 764 763 756 756 756 757 756 754 752 751 750 749 748 746 743 739 736 732 730 729 727 723 721 719 717 715 713 710 707 705 702 700 698 698 698
742 745 749 755 758 763 772 782 784 784 786 788 793 803 796 790 779 766 758 753 752 752 752 752 752 751 748 745 745 742 740 740 737 735 731 728 725 724 722 721 719 717 715 712 710 707 705 702 700 698 696 694 692 692
741 742 743 759 765 769 771 768 769 770 768 775 779 783 778 768 758 753 751 751 750 749 746 742 741 742 740 739 738 736 735 734 733 731 731 726 721 719 718 717 715 712 708 705 703 701 699 697 694 692 690 690 689 688
744 743 750 762 762 761 763 763 767 765 763 764 765 765 763 757 749 749 748 746 743 740 738 738 736 735 734 733 731 729 729 727 725 724 724 720 718 716 715 712 710 708 705 701 698 696 694 692 690 688 687 687 687 687
746 750 759 763 764 767 767 766 765 764 767 769 768 768 761 757 745 740 738 732 731 733 733 730 728 729 729 729 729 726 722 720 719 719 718 716 714 712 711 710 708 707 704 700 697 695 692 690 689 687 686 686 686 686
750 757 755 758 765 770 768 771 777 775 778 774 769 771 763 761 757 737 729 728 728 727 726 727 726 724 725 724 723 722 719 716 714 714 712 711 709 708 708 707 706 704 702 700 697 695 693 691 689 688 687 687 687 687
753 753 759 766 765 768 773 774 778 778 778 778 774 772 770 765 753 736 729 727 727 726 725 725 724 722 721 719 717 714 713 711 710 710 709 709 708 707 705 704 702 701 700 699 697 695 693 692 690 689 688 688 687 687